Wind_Speed
18 17 17 15 15 17 18 16 18 24 27 26 25 23 21 20 21 23 24 24 24 24 23 23 23 22 22 22 22 21 21 20 20 20 19 19 19 19 20 20 20 20 20 20 21 21 20 20 21 23 24 25 25 24 23 22 21 20 19 19 18 18
15 15 14 14 14 16 16 14 16 22 24 22 22 22 21 21 23 24 24 24 24 24 24 23 23 23 24 23 23 22 21 21 20 20 19 19 19 19 19 20 20 20 20 20 20 21 20 20 20 22 24 25 26 26 25 24 22 21 21 20 20 20
15 14 14 13 13 14 14 13 16 20 20 20 21 22 22 23 24 25 25 24 24 24 24 24 24 24 24 24 23 22 22 21 20 19 19 19 19 19 19 20 20 20 20 19 20 20 20 20 20 21 23 25 26 27 26 26 24 23 22 21 21 21
15 15 15 15 15 14 14 15 16 18 19 20 22 22 23 24 25 25 25 24 24 24 24 24 24 24 25 25 24 23 21 21 20 19 18 18 18 19 19 19 20 20 20 19 19 19 19 19 19 20 22 24 26 27 27 27 26 25 24 23 23 23
14 15 15 15 15 13 14 16 15 17 20 20 21 22 22 23 25 24 24 24 24 24 24 24 24 25 25 25 24 22 21 21 20 18 18 17 17 18 18 19 20 20 20 19 19 18 18 17 18 19 21 23 25 27 28 28 27 26 25 25 24 24
13 14 14 14 14 13 14 15 15 16 19 20 21 21 21 22 24 23 23 23 23 24 24 24 24 25 25 24 23 22 21 20 19 18 17 17 17 17 18 19 19 19 19 19 18 18 17 16 16 17 19 21 24 26 27 28 28 27 26 26 26 25
15 14 14 13 13 14 14 14 14 15 17 18 20 20 21 22 23 23 23 23 23 23 24 24 24 24 24 22 22 21 20 20 19 18 17 17 17 17 17 18 18 18 18 18 17 17 17 17 17 17 18 20 22 24 27 28 28 27 27 26 26 26
14 12 11 11 12 14 14 13 13 13 16 18 19 20 21 22 22 22 22 22 22 22 22 22 23 23 22 21 21 21 20 20 20 19 17 16 17 17 18 18 18 18 18 17 17 17 17 16 17 17 18 20 21 23 25 27 28 28 28 27 27 26
11 10 8 9 13 14 12 12 12 14 16 17 18 19 20 21 21 21 21 21 21 21 21 21 21 21 20 20 20 21 20 20 19 19 17 17 17 18 19 19 18 18 18 18 17 16 15 15 16 16 18 19 21 22 24 26 28 29 29 28 27 25
12 11 9 11 14 13 11 10 12 14 15 16 17 18 19 20 20 20 20 20 20 20 20 20 20 20 19 19 20 20 20 19 18 18 17 18 19 19 20 19 19 19 19 18 16 15 14 15 15 15 16 18 19 21 23 25 27 29 30 30 29 26
13 13 11 13 14 12 11 11 12 14 15 16 17 18 18 19 19 19 19 19 19 18 19 19 18 18 17 18 19 19 19 18 17 18 18 19 19 20 20 19 19 19 18 18 16 15 15 15 14 14 15 16 17 19 21 23 25 28 29 30 30 28
13 12 11 13 13 11 11 11 13 14 14 13 14 16 17 17 18 18 18 18 18 17 18 18 17 16 17 18 18 17 16 16 17 18 19 19 19 19 19 19 19 18 18 17 17 16 16 15 15 14 14 15 16 18 20 22 23 26 27 28 30 30
13 13 11 11 11 11 11 11 11 11 10 11 13 15 16 17 17 18 18 17 17 16 17 18 17 16 16 18 18 15 14 15 16 18 19 19 20 19 19 19 19 18 18 17 17 18 17 16 15 15 15 15 15 16 18 20 21 23 24 24 28 30
13 12 11 11 11 11 11 10 9 7 9 11 13 14 16 17 17 18 18 17 16 16 17 17 17 16 15 16 18 15 13 15 17 18 19 19 20 20 19 19 19 18 17 17 18 18 18 17 16 15 15 15 15 16 16 17 18 20 20 19 22 26
12 12 10 10 11 11 10 9 7 7 10 12 13 14 15 16 16 17 17 16 16 16 16 16 16 16 15 15 17 15 13 15 17 18 18 19 20 19 19 19 18 18 18 18 19 19 18 17 17 16 16 16 16 16 16 16 17 17 18 17 19 22
12 11 11 11 11 11 10 9 8 9 11 12 13 14 14 14 15 15 16 16 16 15 16 16 15 16 15 16 17 15 14 16 17 18 18 18 19 19 18 18 18 18 19 19 19 19 18 18 17 16 16 16 16 16 16 17 17 17 17 18 19 20
12 10 11 11 11 11 10 9 10 10 11 12 12 13 13 13 14 14 15 15 16 15 15 16 15 15 15 15 16 16 16 16 17 17 17 17 18 18 17 17 18 19 20 20 19 19 19 18 18 17 16 16 16 16 17 17 18 18 19 19 20 20
10 10 11 10 10 11 11 11 11 10 11 11 12 12 12 13 13 14 14 14 15 15 15 15 15 15 15 15 15 16 16 16 17 17 16 17 18 18 18 19 20 20 20 19 19 18 18 17 16 16 16 16 17 17 17 18 18 19 20 20 21 21
8 7 8 8 10 11 12 11 11 10 10 11 12 12 12 12 13 14 14 14 14 14 15 15 15 15 15 15 15 16 16 16 16 16 16 17 17 18 19 20 20 19 20 19 18 18 17 16 15 15 15 16 17 18 18 19 19 19 20 21 21 22
7 5 7 8 10 12 12 11 10 9 9 10 11 11 12 12 13 13 14 14 14 14 14 15 15 15 16 16 16 16 16 16 16 16 16 17 18 18 19 19 19 19 20 18 16 16 15 14 14 15 15 15 17 18 19 19 19 20 20 21 22 22
9 9 9 10 12 13 13 11 10 9 8 10 11 11 12 13 13 13 13 14 14 14 14 14 15 15 16 16 16 16 16 16 16 16 17 17 18 18 18 18 19 19 19 17 15 14 14 13 14 14 15 15 16 17 18 19 19 20 20 21 21 22
12 10 10 11 13 13 13 11 10 9 9 11 11 13 14 14 15 14 14 13 13 14 14 13 14 15 16 16 16 16 17 17 17 17 17 18 18 18 18 18 18 18 18 17 16 15 15 15 15 15 15 16 16 17 18 19 20 20 20 21 21 21
11 10 10 12 14 14 13 11 11 10 11 11 12 14 16 16 15 15 15 14 12 12 12 13 13 14 15 16 17 17 17 17 17 17 18 18 19 18 18 18 18 19 19 19 17 17 16 17 17 17 17 17 17 17 18 19 20 20 21 21 20 20
11 11 12 13 14 14 13 12 12 12 12 13 14 15 17 16 15 15 16 15 12 10 10 11 12 12 14 16 17 17 17 17 17 18 18 19 19 19 19 18 18 19 20 20 19 19 18 19 19 18 17 17 17 18 19 19 20 20 21 20 20 20
13 13 14 15 16 15 14 13 13 13 14 14 15 16 16 16 14 15 17 15 12 10 9 10 10 11 13 15 16 17 18 18 18 18 18 19 20 20 20 20 20 20 20 21 20 20 20 21 20 19 18 18 18 18 19 19 19 20 20 20 19 20
16 16 16 16 16 15 14 14 14 14 15 15 16 16 16 15 14 16 17 15 13 11 10 10 10 11 13 15 16 17 18 18 19 19 19 19 20 20 21 21 21 21 21 22 22 22 22 22 22 20 19 19 19 18 18 18 19 20 20 19 19 19
16 15 15 15 16 15 14 14 14 15 15 16 17 17 15 14 15 16 16 15 14 13 12 11 11 11 12 14 16 18 19 19 19 20 20 20 20 21 21 21 21 22 22 22 22 23 22 23 22 21 20 20 20 19 19 18 19 20 20 20 20 19
15 15 15 16 16 15 14 14 15 16 16 16 18 17 16 15 15 17 17 15 15 14 13 13 14 15 14 14 16 18 19 19 20 20 21 21 21 21 21 21 21 21 21 21 22 22 22 22 22 21 20 20 20 20 20 20 20 20 20 20 21 20
16 16 17 17 16 16 15 16 17 17 17 17 18 18 16 15 15 17 18 18 17 16 16 18 20 20 17 15 16 17 19 20 20 20 21 22 22 22 22 22 22 21 21 21 21 21 21 20 20 20 20 19 19 19 20 20 20 20 21 21 22 22
20 19 18 18 17 16 16 17 18 19 19 19 19 18 17 16 15 16 17 19 19 20 20 22 23 21 18 16 16 17 18 19 20 21 22 23 23 23 23 23 23 22 22 22 21 21 21 20 19 19 19 18 18 19 20 20 20 20 21 21 22 23
22 20 19 18 17 18 18 19 20 21 22 21 20 19 17 16 16 15 15 17 19 21 22 22 21 20 17 16 16 17 18 18 19 20 21 23 24 25 24 24 24 23 23 23 22 21 21 20 19 19 18 18 18 19 19 20 20 19 20 21 22 23
22 21 19 19 19 20 20 20 21 22 23 23 22 21 18 16 16 16 16 16 18 20 21 21 19 17 15 15 15 16 17 18 18 19 20 22 24 25 25 25 25 25 24 23 22 22 21 20 20 19 19 18 18 18 19 19 19 19 19 20 21 22
21 21 20 21 21 21 21 22 23 24 25 25 23 22 19 17 17 17 17 16 17 19 19 18 17 15 14 14 14 15 16 17 18 18 19 20 22 24 25 25 25 25 25 24 23 22 21 20 20 19 19 18 18 18 18 18 18 18 18 19 20 21
20 21 21 21 22 21 21 22 23 24 24 24 23 21 18 17 17 17 17 16 17 18 16 16 15 15 14 13 13 14 15 16 17 17 18 20 21 22 23 24 24 24 24 23 22 21 21 20 20 19 18 18 18 18 18 17 17 17 17 18 19 20
23 22 21 21 20 20 20 21 21 21 21 22 21 19 18 18 18 19 18 17 17 17 16 15 15 14 14 13 13 13 14 15 16 16 17 19 20 21 22 22 22 22 22 21 20 20 19 19 19 18 18 17 17 17 17 17 17 17 17 17 17 18
18 15 16 16 16 17 18 18 17 16 16 16 15 16 17 19 21 22 20 18 18 17 15 15 14 13 13 13 13 13 13 14 15 16 17 18 19 20 21 21 21 21 20 19 19 19 18 18 18 17 17 17 17 16 16 16 16 16 16 16 16 17
16 14 13 12 11 12 12 11 10 8 9 10 11 12 15 18 20 21 19 19 19 18 17 16 15 15 14 13 13 13 14 14 15 16 16 17 18 19 19 20 20 20 19 19 18 18 18 18 17 17 16 16 16 16 16 16 15 15 15 16 16 15
Wind_Direction
281 278 273 267 263 262 266 270 270 260 250 247 242 239 244 247 249 252 256 261 264 267 268 270 272 274 276 277 280 282 281 279 277 274 272 270 267 264 261 257 252 249 246 244 243 242 242 241 240 239 240 243 244 244 246 248 248 248 248 249 252 255
271 272 268 261 259 259 258 255 251 249 248 248 245 245 248 248 249 251 255 258 261 263 265 268 270 273 276 278 280 281 280 278 276 274 272 270 267 264 260 257 253 250 247 245 243 241 241 241 240 240 240 241 243 244 244 245 246 245 243 243 246 250
261 263 259 251 250 250 247 242 239 241 244 246 245 246 248 249 252 253 254 256 258 260 262 266 269 273 276 278 279 279 278 277 275 273 272 269 266 262 259 256 253 250 247 245 243 240 239 240 240 241 241 241 242 243 243 244 244 245 243 240 241 245
259 252 246 247 247 244 244 242 240 242 244 245 245 250 253 255 256 257 257 257 258 260 263 266 270 274 277 278 279 278 279 277 275 273 271 269 264 260 258 255 251 248 246 244 244 242 240 239 241 242 242 241 241 241 243 244 244 245 244 241 239 241
259 244 239 248 248 241 244 245 247 249 250 250 251 255 258 259 258 258 258 259 261 263 266 269 271 274 276 278 279 280 280 278 276 274 271 268 262 258 257 252 249 247 245 244 243 242 241 239 240 241 241 241 239 239 241 243 245 246 246 244 241 239
247 240 238 241 239 235 240 244 246 249 250 254 257 258 260 260 259 258 260 261 263 266 268 271 273 275 277 279 281 282 282 279 277 273 270 266 260 257 254 251 249 248 247 246 244 243 242 240 238 238 240 241 239 238 238 240 243 245 246 247 245 241
239 237 237 233 230 229 231 237 242 246 247 251 256 258 259 259 259 260 261 263 264 267 270 273 275 276 278 281 284 284 283 279 275 270 265 261 257 254 252 250 249 248 247 245 244 243 242 240 238 237 239 241 241 239 237 238 240 243 246 246 246 243
238 229 225 225 226 227 228 235 243 247 248 251 254 255 256 258 260 262 263 266 268 270 272 274 275 276 279 281 282 281 280 276 272 267 261 257 254 251 250 249 247 246 245 242 241 241 242 241 240 238 237 239 241 241 238 237 238 240 243 245 246 245
216 208 206 224 234 235 233 238 247 252 254 256 257 258 259 262 264 266 268 269 270 270 272 272 274 276 278 278 278 277 276 273 268 264 258 254 252 250 249 247 246 245 244 242 241 241 243 244 241 238 236 236 237 239 239 237 237 238 240 243 245 245
194 208 225 238 238 238 235 240 250 254 258 261 263 265 265 266 267 267 267 267 268 270 271 273 274 275 277 279 279 278 277 273 268 263 259 255 253 251 249 246 245 244 243 242 241 242 243 244 242 237 235 235 235 238 239 238 238 238 239 241 244 245
207 223 240 236 228 229 228 236 245 252 260 264 266 267 267 267 267 268 269 269 273 277 278 278 276 277 279 280 280 280 280 277 271 266 262 259 257 255 251 247 245 243 242 242 242 242 242 243 243 239 236 235 236 238 241 241 240 240 241 241 242 244
225 237 245 231 223 226 230 240 248 254 261 264 267 269 269 270 270 273 274 277 284 288 286 284 284 285 284 279 277 279 281 279 273 268 264 262 260 258 254 250 245 242 240 240 242 243 243 244 244 241 238 235 236 238 242 244 244 245 247 246 242 243
242 247 242 226 224 232 240 247 249 254 260 266 271 272 273 275 277 280 281 286 291 292 290 290 289 287 285 283 282 279 277 275 271 266 263 262 261 256 252 249 245 241 241 242 244 245 246 246 244 241 238 236 236 238 243 246 248 249 252 252 243 239
249 242 227 220 227 238 247 248 245 254 265 272 276 277 280 281 282 284 286 289 291 290 291 291 289 285 283 285 284 279 277 275 269 265 262 261 261 257 251 248 247 244 244 245 247 249 249 248 246 243 241 238 237 237 241 247 251 251 252 254 241 236
248 237 226 225 233 242 247 247 250 262 271 277 279 281 283 283 284 286 287 289 289 290 291 291 292 290 288 286 283 280 280 277 273 269 264 262 261 257 251 248 247 246 245 247 249 251 251 250 249 247 245 241 237 236 239 245 251 254 253 252 244 240
246 236 228 229 236 245 246 247 253 262 271 277 279 281 283 285 288 289 291 292 291 292 291 292 293 292 290 287 285 284 280 276 274 272 269 265 261 257 253 250 247 245 246 247 250 253 253 253 252 252 250 245 240 237 237 240 246 251 252 250 248 247
234 223 225 230 236 244 246 250 256 260 267 273 276 280 282 286 288 289 291 291 292 292 290 289 288 286 285 282 282 282 278 273 272 272 272 268 262 259 256 250 245 243 244 245 247 251 255 255 256 257 255 251 247 241 237 236 240 245 249 249 247 246
216 211 225 234 240 246 249 251 253 256 261 267 272 277 281 285 287 289 289 289 290 290 288 287 284 281 279 277 276 276 275 274 273 273 273 270 264 260 256 250 247 246 246 245 246 252 257 258 259 261 260 258 254 249 242 238 238 241 244 246 247 246
199 208 229 239 246 247 247 248 249 253 257 262 269 276 283 285 287 288 289 290 290 290 288 285 281 278 277 275 273 273 275 275 274 274 272 268 264 258 255 252 251 252 251 250 251 254 258 259 258 261 261 261 259 254 248 244 242 242 243 245 246 248
199 238 245 240 243 244 245 246 247 250 255 263 270 277 283 284 286 287 289 289 288 288 286 284 280 277 274 273 272 272 273 273 272 272 270 266 262 258 256 255 254 255 255 257 259 257 257 257 256 259 261 262 261 257 253 250 247 247 248 248 248 249
227 250 248 239 241 243 244 244 245 249 260 270 275 279 282 284 285 284 284 284 284 284 284 283 281 278 274 272 271 270 271 272 272 271 270 267 264 261 259 256 255 258 260 261 264 263 261 261 259 260 263 263 262 259 256 255 254 252 252 253 253 253
234 241 243 244 244 243 244 247 251 259 269 276 278 281 282 283 283 282 281 278 280 284 285 285 283 280 277 273 271 270 268 269 269 270 270 269 267 265 262 259 257 261 265 264 265 267 266 265 265 263 263 263 262 260 258 257 257 256 256 256 256 257
234 239 245 248 247 246 246 251 258 266 273 277 279 281 282 282 280 279 278 275 273 278 284 288 289 287 283 278 273 269 267 267 266 267 267 267 267 266 264 260 258 261 264 265 265 267 267 267 268 266 263 263 263 262 260 258 258 258 258 259 259 261
236 240 245 248 249 249 250 253 259 266 272 275 278 280 282 281 276 272 274 274 270 270 277 284 289 292 290 285 278 272 269 267 266 265 265 266 266 266 264 261 258 258 260 263 265 267 269 269 269 267 266 266 266 264 262 261 260 260 260 262 264 264
235 236 239 245 248 250 251 254 259 265 271 275 278 279 280 280 274 269 270 272 270 269 274 279 285 292 294 291 285 278 272 269 267 265 264 264 265 265 265 264 262 260 261 264 268 270 272 273 273 271 272 272 270 266 263 263 263 263 264 265 266 266
233 235 239 243 248 249 251 255 260 266 270 274 278 280 281 279 270 267 271 273 271 270 271 274 280 289 295 294 290 283 277 272 268 265 264 263 264 265 265 265 265 265 266 268 271 273 274 275 276 276 276 276 274 270 266 265 265 265 267 267 267 266
242 243 245 248 251 252 254 260 266 269 272 275 278 282 285 281 268 262 268 272 272 274 275 278 283 287 290 293 291 286 279 273 270 266 264 262 261 262 263 264 265 265 267 267 269 271 273 274 275 276 276 275 274 272 269 268 267 268 270 270 269 267
252 250 248 249 251 254 258 263 268 270 271 274 276 279 285 286 274 263 264 269 271 271 275 285 294 294 288 285 287 286 281 275 271 269 266 263 260 259 260 261 263 265 266 266 267 268 269 270 271 271 272 271 271 271 271 271 270 272 273 273 272 270
247 243 243 245 247 251 257 261 264 265 267 270 272 274 280 286 281 270 265 268 272 270 272 284 295 295 287 279 281 283 281 275 271 270 268 265 262 259 258 259 260 263 264 265 265 265 264 264 265 265 266 268 270 271 272 272 272 272 273 274 273 272
242 238 238 242 245 248 252 255 257 259 261 264 268 271 276 281 283 278 270 268 271 271 273 284 291 290 283 278 278 280 278 274 270 269 269 267 265 261 259 258 258 259 260 261 261 261 261 260 260 261 262 264 266 269 271 272 272 271 272 272 272 274
241 237 238 240 243 247 249 253 255 258 261 262 266 271 275 278 280 279 274 269 271 273 277 284 285 281 277 275 276 278 276 273 269 267 268 268 267 264 261 259 258 258 258 258 258 258 259 259 259 260 261 262 263 265 269 272 272 270 270 271 271 273
232 231 236 241 244 248 250 255 259 262 265 267 269 272 274 277 277 274 272 269 271 276 280 280 275 272 274 272 273 275 276 275 272 270 268 268 267 266 264 262 260 259 258 257 257 257 258 259 258 259 260 261 262 265 268 271 272 271 270 270 271 272
228 231 238 245 247 251 256 260 264 266 268 269 268 268 269 272 274 271 270 269 271 275 277 273 266 267 275 276 272 273 274 276 276 275 274 271 269 268 266 264 262 260 259 259 258 259 259 260 260 260 260 261 262 264 267 270 272 272 271 271 272 273
235 241 243 247 250 254 259 262 264 266 268 268 265 264 264 264 269 273 274 271 271 272 268 261 260 266 275 279 277 274 273 273 274 275 276 275 272 270 267 266 264 262 262 261 261 261 262 262 262 261 261 261 262 263 265 268 270 272 272 272 272 272
243 250 248 250 254 256 260 262 262 263 266 268 265 261 261 262 268 277 277 270 269 270 262 254 257 264 271 278 281 279 275 272 271 271 272 272 271 269 267 265 263 262 262 262 262 263 263 264 264 264 263 263 263 264 265 267 268 270 271 271 272 272
245 251 250 251 257 259 260 261 262 263 266 270 266 259 259 262 269 276 273 265 265 267 257 250 254 261 268 275 280 281 280 275 272 270 269 270 269 268 266 264 263 263 262 263 263 264 265 266 266 267 267 267 265 265 264 265 266 268 268 268 270 271
252 252 253 258 266 266 260 253 253 263 268 270 269 262 261 262 267 271 267 262 262 256 250 250 255 262 269 275 279 281 281 279 277 274 271 270 269 268 267 266 265 265 265 266 266 267 268 269 270 271 271 272 271 270 268 268 268 269 270 270 270 271
Height
5814 5814 5813 5813 5814 5816 5817 5817 5816 5817 5818 5818 5819 5820 5821 5822 5822 5822 5822 5822 5822 5822 5822 5823 5823 5823 5823 5823 5824 5824 5824 5825 5824 5824 5824 5824 5825 5825 5826 5826 5827 5828 5828 5829 5830 5831 5833 5834 5834 5835 5835 5834 5834 5835 5836 5836 5836 5837 5838 5839 5839 5840
5811 5811 5811 5812 5813 5813 5814 5814 5814 5815 5816 5817 5818 5818 5819 5819 5819 5819 5820 5820 5820 5820 5820 5820 5821 5821 5821 5821 5822 5822 5822 5823 5822 5822 5822 5822 5822 5823 5824 5824 5825 5826 5826 5827 5828 5829 5831 5832 5832 5832 5833 5833 5833 5833 5834 5834 5834 5835 5836 5837 5837 5838
5807 5808 5809 5809 5810 5810 5811 5812 5813 5813 5814 5815 5816 5816 5816 5817 5817 5817 5817 5817 5818 5818 5818 5818 5819 5819 5819 5819 5819 5820 5820 5821 5821 5820 5820 5820 5820 5821 5821 5822 5823 5823 5824 5825 5826 5827 5828 5829 5830 5830 5830 5831 5831 5831 5832 5832 5833 5833 5834 5835 5835 5836
5805 5805 5806 5807 5807 5808 5809 5810 5811 5811 5812 5813 5814 5815 5815 5815 5815 5815 5815 5815 5815 5815 5816 5816 5817 5817 5817 5817 5817 5818 5818 5818 5818 5818 5818 5818 5818 5818 5819 5819 5820 5821 5821 5822 5824 5825 5826 5827 5828 5828 5828 5829 5829 5829 5830 5830 5831 5831 5832 5832 5833 5834
5804 5804 5805 5806 5806 5807 5808 5808 5809 5810 5811 5812 5813 5813 5813 5813 5813 5813 5813 5813 5813 5813 5814 5814 5815 5815 5815 5815 5815 5816 5817 5816 5816 5817 5816 5816 5816 5816 5816 5817 5817 5818 5819 5820 5821 5822 5824 5825 5825 5826 5826 5826 5827 5827 5828 5828 5829 5830 5830 5830 5831 5832
5802 5802 5803 5804 5805 5805 5806 5806 5807 5808 5810 5811 5811 5811 5811 5810 5810 5811 5811 5811 5811 5812 5812 5812 5813 5813 5813 5813 5814 5814 5815 5814 5814 5814 5814 5814 5814 5814 5814 5814 5815 5816 5817 5818 5819 5820 5821 5822 5823 5824 5824 5824 5825 5825 5826 5826 5827 5828 5828 5829 5829 5830
5799 5799 5801 5803 5803 5804 5804 5805 5806 5806 5807 5808 5809 5809 5809 5808 5809 5809 5809 5810 5810 5810 5810 5811 5811 5811 5811 5812 5812 5812 5812 5812 5812 5812 5812 5812 5812 5812 5812 5812 5812 5813 5814 5816 5817 5818 5818 5819 5821 5822 5822 5823 5823 5823 5824 5824 5825 5826 5826 5826 5826 5827
5798 5798 5800 5802 5803 5803 5803 5803 5804 5804 5805 5806 5807 5807 5807 5807 5807 5807 5808 5808 5808 5808 5808 5808 5808 5808 5809 5810 5810 5810 5810 5810 5810 5810 5810 5810 5810 5810 5810 5810 5810 5811 5812 5813 5814 5815 5816 5817 5818 5820 5820 5821 5821 5821 5821 5822 5823 5823 5823 5824 5824 5825
5797 5798 5799 5800 5802 5802 5801 5801 5802 5803 5804 5805 5805 5805 5805 5806 5806 5806 5806 5806 5806 5806 5806 5806 5806 5806 5807 5807 5807 5807 5807 5807 5807 5808 5808 5808 5808 5808 5808 5808 5808 5809 5810 5811 5812 5813 5814 5815 5816 5817 5818 5819 5819 5818 5819 5819 5820 5821 5821 5821 5822 5823
5795 5796 5796 5798 5800 5799 5799 5800 5801 5802 5803 5804 5804 5804 5804 5804 5804 5804 5804 5804 5804 5804 5804 5804 5804 5804 5805 5805 5805 5805 5805 5805 5806 5806 5807 5807 5806 5806 5807 5807 5807 5808 5809 5809 5810 5811 5812 5813 5814 5816 5816 5816 5817 5816 5817 5817 5818 5819 5819 5819 5820 5821
5794 5795 5795 5796 5797 5797 5798 5799 5800 5801 5801 5802 5802 5802 5802 5802 5803 5803 5802 5802 5802 5803 5803 5802 5803 5803 5803 5803 5802 5802 5803 5803 5804 5804 5805 5805 5805 5806 5806 5806 5806 5806 5807 5808 5808 5810 5811 5812 5813 5814 5814 5815 5815 5815 5815 5815 5816 5816 5817 5817 5818 5819
5793 5793 5794 5794 5795 5796 5796 5798 5798 5799 5799 5800 5800 5801 5801 5801 5801 5801 5800 5800 5801 5802 5801 5800 5801 5801 5801 5800 5800 5800 5801 5801 5802 5803 5803 5803 5804 5804 5805 5805 5805 5805 5805 5806 5807 5807 5809 5810 5811 5811 5812 5812 5813 5813 5813 5813 5814 5814 5815 5815 5816 5817
5793 5793 5793 5793 5794 5795 5796 5796 5797 5797 5798 5798 5799 5799 5799 5799 5799 5799 5799 5799 5799 5800 5799 5799 5799 5799 5798 5798 5799 5800 5800 5800 5800 5801 5801 5801 5802 5802 5803 5803 5803 5804 5804 5804 5805 5805 5806 5808 5809 5810 5810 5810 5811 5811 5811 5811 5812 5812 5812 5813 5813 5815
5792 5792 5792 5792 5793 5794 5795 5795 5796 5796 5796 5797 5798 5798 5798 5798 5798 5797 5797 5798 5798 5798 5798 5798 5798 5797 5797 5797 5797 5798 5798 5798 5798 5798 5799 5799 5800 5801 5801 5801 5802 5803 5803 5803 5803 5804 5804 5805 5807 5808 5808 5809 5809 5809 5809 5809 5809 5810 5810 5810 5811 5812
5791 5791 5792 5792 5792 5793 5794 5794 5794 5794 5795 5796 5796 5796 5796 5796 5796 5796 5796 5796 5796 5796 5796 5795 5795 5795 5794 5794 5795 5796 5796 5795 5796 5796 5797 5798 5798 5799 5800 5800 5801 5801 5802 5802 5802 5802 5803 5804 5804 5805 5806 5807 5807 5807 5808 5808 5807 5807 5808 5809 5809 5810
5789 5790 5791 5791 5791 5792 5792 5792 5793 5793 5794 5795 5795 5795 5795 5795 5795 5795 5794 5794 5794 5794 5794 5793 5793 5793 5792 5792 5793 5793 5793 5793 5794 5794 5795 5796 5796 5797 5798 5799 5799 5800 5800 5800 5800 5801 5802 5802 5802 5803 5804 5805 5806 5806 5806 5806 5806 5806 5806 5807 5807 5808
5789 5790 5790 5790 5790 5790 5791 5791 5791 5792 5793 5793 5794 5794 5794 5793 5793 5793 5793 5793 5792 5792 5792 5792 5792 5792 5792 5792 5792 5792 5792 5792 5792 5792 5793 5794 5794 5795 5797 5797 5797 5797 5797 5798 5799 5799 5800 5800 5800 5801 5802 5803 5804 5804 5804 5804 5804 5804 5804 5805 5805 5806
5788 5789 5789 5789 5789 5789 5789 5790 5790 5791 5791 5792 5792 5792 5792 5792 5792 5792 5792 5791 5791 5791 5791 5791 5791 5791 5791 5791 5791 5790 5790 5791 5791 5791 5791 5792 5793 5794 5795 5795 5795 5795 5796 5796 5797 5798 5798 5799 5799 5799 5800 5800 5801 5802 5803 5803 5803 5803 5803 5803 5803 5804
5787 5788 5789 5789 5788 5788 5788 5789 5789 5789 5790 5790 5791 5791 5791 5791 5790 5790 5790 5790 5790 5790 5790 5789 5789 5789 5789 5790 5789 5789 5789 5789 5789 5789 5790 5790 5791 5792 5792 5793 5793 5794 5795 5795 5796 5797 5797 5797 5798 5798 5798 5798 5799 5800 5800 5801 5801 5801 5801 5802 5802 5802
5787 5787 5788 5787 5787 5787 5787 5787 5787 5788 5788 5789 5789 5789 5789 5789 5789 5789 5788 5788 5788 5788 5788 5788 5788 5788 5788 5788 5788 5788 5788 5788 5788 5788 5788 5788 5789 5790 5790 5791 5792 5793 5793 5794 5795 5795 5795 5795 5796 5796 5797 5797 5797 5797 5798 5799 5799 5800 5800 5800 5800 5800
5785 5786 5786 5786 5786 5786 5786 5786 5785 5786 5786 5787 5787 5788 5788 5788 5788 5787 5787 5787 5786 5786 5786 5786 5786 5786 5786 5786 5786 5786 5786 5786 5786 5786 5786 5786 5787 5788 5788 5789 5790 5791 5791 5792 5792 5792 5793 5793 5794 5795 5795 5795 5795 5795 5796 5797 5797 5798 5798 5798 5798 5798
5784 5785 5785 5785 5785 5785 5784 5784 5784 5784 5785 5785 5786 5786 5786 5786 5786 5786 5785 5785 5785 5784 5784 5784 5784 5784 5784 5784 5784 5785 5785 5785 5785 5785 5785 5785 5785 5786 5786 5787 5788 5788 5789 5790 5790 5791 5791 5791 5792 5793 5793 5793 5793 5794 5794 5794 5795 5795 5796 5796 5796 5797
5783 5783 5783 5783 5783 5783 5782 5782 5782 5782 5783 5784 5784 5784 5785 5785 5784 5784 5784 5784 5783 5783 5782 5782 5782 5782 5782 5782 5783 5783 5783 5784 5784 5784 5784 5783 5783 5784 5784 5785 5786 5786 5787 5788 5789 5789 5789 5790 5790 5791 5791 5792 5792 5792 5792 5792 5792 5793 5793 5794 5794 5795
5781 5781 5781 5781 5781 5781 5780 5780 5780 5781 5781 5782 5783 5784 5783 5783 5783 5783 5782 5782 5782 5782 5781 5781 5780 5780 5780 5781 5781 5781 5782 5782 5782 5782 5782 5782 5782 5782 5782 5783 5784 5784 5785 5785 5786 5787 5787 5788 5789 5789 5790 5790 5791 5791 5790 5790 5790 5790 5791 5792 5792 5793
5778 5779 5779 5779 5779 5779 5779 5778 5778 5779 5780 5781 5782 5782 5782 5782 5782 5781 5781 5781 5781 5780 5780 5779 5779 5779 5779 5779 5779 5779 5780 5780 5780 5781 5781 5780 5780 5780 5780 5781 5781 5782 5783 5783 5784 5785 5785 5786 5786 5788 5788 5788 5789 5789 5788 5788 5788 5788 5789 5789 5790 5790
5777 5777 5777 5777 5777 5777 5777 5777 5777 5778 5778 5779 5780 5781 5781 5780 5780 5779 5779 5779 5779 5779 5779 5778 5778 5777 5777 5777 5777 5777 5777 5778 5778 5779 5779 5778 5778 5778 5778 5779 5779 5780 5781 5781 5781 5782 5783 5783 5784 5785 5786 5786 5786 5786 5786 5786 5786 5786 5787 5787 5788 5788
5775 5775 5775 5776 5776 5776 5776 5776 5776 5777 5777 5778 5778 5779 5779 5779 5778 5778 5778 5778 5777 5777 5777 5777 5776 5776 5775 5775 5775 5775 5775 5775 5776 5776 5776 5776 5776 5776 5776 5777 5777 5778 5778 5779 5779 5780 5780 5781 5781 5782 5782 5783 5784 5784 5784 5784 5784 5784 5785 5785 5785 5786
5773 5773 5773 5773 5774 5774 5775 5775 5775 5776 5776 5776 5777 5776 5776 5776 5776 5776 5776 5776 5776 5775 5775 5774 5774 5774 5774 5773 5773 5773 5773 5773 5773 5774 5774 5774 5774 5774 5774 5775 5775 5775 5776 5776 5777 5778 5778 5778 5779 5779 5780 5780 5781 5781 5781 5782 5782 5782 5783 5783 5783 5783
5770 5770 5770 5771 5771 5772 5773 5774 5774 5774 5774 5774 5774 5774 5774 5774 5774 5774 5774 5774 5774 5774 5773 5772 5772 5772 5772 5771 5771 5771 5771 5771 5771 5771 5771 5772 5772 5772 5772 5772 5772 5773 5773 5774 5774 5775 5776 5776 5776 5776 5777 5777 5778 5778 5778 5779 5780 5780 5781 5781 5781 5781
5767 5767 5768 5769 5770 5770 5771 5771 5771 5771 5771 5772 5772 5772 5772 5772 5772 5772 5772 5772 5772 5772 5772 5771 5770 5770 5769 5769 5769 5769 5769 5769 5769 5769 5769 5770 5770 5770 5770 5770 5770 5770 5771 5771 5772 5772 5773 5773 5774 5773 5773 5774 5774 5775 5776 5776 5777 5778 5778 5779 5779 5779
5764 5765 5766 5767 5768 5768 5769 5769 5769 5769 5769 5770 5770 5770 5770 5770 5770 5770 5770 5770 5770 5770 5770 5770 5769 5768 5767 5767 5766 5766 5766 5767 5767 5767 5767 5768 5768 5768 5768 5768 5768 5768 5769 5769 5769 5770 5770 5771 5771 5771 5770 5771 5771 5772 5773 5773 5774 5775 5776 5776 5776 5776
5761 5763 5764 5764 5765 5765 5766 5767 5768 5768 5767 5768 5768 5768 5768 5768 5768 5768 5768 5768 5768 5768 5768 5767 5767 5766 5766 5765 5765 5764 5765 5765 5765 5765 5766 5766 5766 5766 5766 5766 5767 5767 5767 5767 5767 5768 5768 5768 5768 5768 5768 5768 5769 5769 5770 5770 5771 5772 5773 5774 5774 5774
5759 5761 5762 5762 5763 5764 5765 5766 5766 5766 5765 5765 5765 5765 5766 5766 5766 5765 5766 5766 5766 5766 5765 5765 5765 5764 5764 5763 5763 5763 5763 5763 5763 5764 5764 5764 5764 5765 5765 5765 5765 5765 5765 5765 5766 5766 5766 5766 5766 5766 5766 5766 5766 5767 5767 5768 5768 5769 5770 5771 5771 5771
5759 5759 5760 5761 5761 5762 5763 5764 5763 5763 5762 5762 5762 5763 5763 5763 5763 5764 5764 5764 5764 5763 5763 5762 5763 5763 5762 5762 5762 5762 5762 5762 5762 5762 5763 5763 5763 5763 5763 5763 5764 5764 5764 5764 5764 5764 5764 5764 5764 5764 5764 5764 5764 5764 5765 5765 5766 5766 5767 5767 5768 5768
5755 5756 5758 5759 5759 5760 5760 5760 5760 5760 5759 5759 5759 5760 5761 5761 5761 5761 5762 5762 5762 5761 5761 5760 5761 5761 5760 5760 5760 5760 5761 5761 5761 5762 5762 5762 5762 5762 5762 5762 5762 5762 5762 5762 5762 5762 5762 5762 5762 5762 5762 5762 5762 5762 5763 5763 5763 5764 5764 5765 5765 5765
5753 5754 5755 5756 5756 5757 5757 5757 5757 5757 5757 5757 5756 5757 5758 5758 5759 5759 5759 5759 5760 5759 5759 5759 5759 5759 5759 5759 5759 5759 5759 5759 5760 5761 5761 5761 5761 5761 5760 5760 5760 5760 5760 5760 5760 5760 5760 5760 5760 5761 5761 5761 5761 5761 5761 5761 5761 5761 5762 5762 5763 5763
5751 5751 5751 5752 5753 5754 5754 5755 5755 5755 5755 5755 5754 5755 5756 5756 5756 5756 5756 5757 5757 5757 5757 5757 5757 5757 5757 5757 5757 5757 5758 5758 5759 5759 5760 5760 5760 5759 5759 5759 5759 5759 5759 5759 5759 5759 5759 5759 5759 5759 5759 5759 5759 5760 5760 5760 5759 5759 5760 5760 5760 5761